Fairbury, Nebraska, United States (68352)
Lat: 40.14N, Lon: 97.18W
Wx Zone: NEZ088
Local Info
Past Weather Observations for Today

NOTE: This archive is for the closest National Weather Service station to Fairbury. Information may differ from the station used for current weather conditions.

Click here for Long-term Archive

Time Weather Temperature Dewpoint Humidity Pressure Winds Precip Visibility
20:55
Clear
63°F / 17°C 61°F / 16°C 94% 30.18 in
(1022 mb)
Calm - 10SM
20:35
Clear
63°F / 17°C 61°F / 16°C 94% 30.18 in
(1022 mb)
Calm - 10SM
20:15
Clear
64°F / 18°C 61°F / 16°C 88% 30.18 in
(1022 mb)
Calm - 10SM
19:55
Clear
66°F / 19°C 63°F / 17°C 88% 30.18 in
(1022 mb)
Calm - 10SM
19:35
Clear
66°F / 19°C 63°F / 17°C 88% 30.15 in
(1021 mb)
Calm - 10SM
19:15
Clear
70°F / 21°C 63°F / 17°C 78% 30.15 in
(1021 mb)
Calm - 10SM
18:55
Clear
72°F / 22°C 63°F / 17°C 73% 30.15 in
(1021 mb)
E 3.5 mph
(E 6 kph)
- 10SM
18:35
Clear
73°F / 23°C 63°F / 17°C 69% 30.15 in
(1021 mb)
Calm - 10SM
18:15
Clear
75°F / 24°C 63°F / 17°C 65% 30.15 in
(1021 mb)
Calm - 10SM
17:15
Clear
79°F / 26°C 59°F / 15°C 51% 30.15 in
(1021 mb)
E 6.9 mph
(E 11 kph)
- 10SM
16:55
Clear
79°F / 26°C 59°F / 15°C 51% 30.15 in
(1021 mb)
E 8.1 mph
(E 13 kph)
- 10SM
16:15
Clear
79°F / 26°C 61°F / 16°C 54% 30.15 in
(1021 mb)
E 6.9 mph
(E 11 kph)
- 10SM
15:55
Clear
79°F / 26°C 61°F / 16°C 54% 30.15 in
(1021 mb)
ENE 5.8 mph
(ENE 9 kph)
- 10SM
14:35
Partly Cloudy
79°F / 26°C 66°F / 19°C 65% 30.15 in
(1021 mb)
ENE 10.4 mph
(ENE 17 kph)
- 10SM
14:15
Mostly Cloudy
79°F / 26°C 68°F / 20°C 70% 30.15 in
(1021 mb)
ENE 9.2 mph
(ENE 15 kph)
- 10SM
13:55
Mostly Cloudy
77°F / 25°C 68°F / 20°C 74% 30.15 in
(1021 mb)
ENE 8.1 mph
(ENE 13 kph)
- 10SM
13:35
Overcast
77°F / 25°C 68°F / 20°C 74% 30.18 in
(1022 mb)
ENE 9.2 mph
(ENE 15 kph)
- 10SM
13:15
Overcast
75°F / 24°C 68°F / 20°C 78% 30.18 in
(1022 mb)
ENE 8.1 mph
(ENE 13 kph)
- 10SM
12:55
Overcast
75°F / 24°C 68°F / 20°C 78% 30.18 in
(1022 mb)
NE 6.9 mph
(NE 11 kph)
- 10SM
12:35
Overcast
75°F / 24°C 68°F / 20°C 78% 30.18 in
(1022 mb)
NE 6.9 mph
(NE 11 kph)
- 10SM
12:15
Overcast
75°F / 24°C 68°F / 20°C 78% 30.18 in
(1022 mb)
ENE 6.9 mph
(ENE 11 kph)
- 10SM
11:55
Mostly Cloudy
75°F / 24°C 68°F / 20°C 78% 30.18 in
(1022 mb)
ENE 5.8 mph
(ENE 9 kph)
- 10SM
11:35
Mostly Cloudy
73°F / 23°C 68°F / 20°C 83% 30.21 in
(1023 mb)
ENE 5.8 mph
(ENE 9 kph)
- 10SM
11:15
Mostly Cloudy
75°F / 24°C 70°F / 21°C 83% 30.21 in
(1023 mb)
ENE 5.8 mph
(ENE 9 kph)
- 10SM
10:55
Mostly Cloudy
73°F / 23°C 70°F / 21°C 89% 30.21 in
(1023 mb)
ENE 5.8 mph
(ENE 9 kph)
- 10SM
09:55
Overcast
73°F / 23°C 70°F / 21°C 89% 30.21 in
(1023 mb)
ENE 8.1 mph
(ENE 13 kph)
- 10SM
09:35
Overcast
73°F / 23°C 70°F / 21°C 89% 30.21 in
(1023 mb)
E 8.1 mph
(E 13 kph)
- 10SM
09:15
Overcast
72°F / 22°C 70°F / 21°C 94% 30.21 in
(1023 mb)
E 8.1 mph
(E 13 kph)
- 10SM
08:55
Overcast
72°F / 22°C 70°F / 21°C 94% 30.18 in
(1022 mb)
ENE 8.1 mph
(ENE 13 kph)
- 7SM
08:35
Mostly Cloudy
Fog And Mist
72°F / 22°C 70°F / 21°C 94% 30.18 in
(1022 mb)
ENE 4.6 mph
(ENE 7 kph)
- 5SM
08:15
Mostly Cloudy
Fog And Mist
72°F / 22°C 70°F / 21°C 94% 30.18 in
(1022 mb)
ENE 6.9 mph
(ENE 11 kph)
- 5SM
07:55
Mostly Cloudy
Fog And Mist
70°F / 21°C 68°F / 20°C 94% 30.18 in
(1022 mb)
ENE 5.8 mph
(ENE 9 kph)
- 4SM
07:35
Overcast
Fog And Mist
70°F / 21°C 68°F / 20°C 94% 30.18 in
(1022 mb)
ENE 4.6 mph
(ENE 7 kph)
- 5SM
07:15
Overcast
Fog And Mist
70°F / 21°C 68°F / 20°C 94% 30.18 in
(1022 mb)
NE 3.5 mph
(NE 6 kph)
- 5SM
06:55
Overcast
Fog And Mist
70°F / 21°C 68°F / 20°C 94% 30.18 in
(1022 mb)
NE 3.5 mph
(NE 6 kph)
- 4SM
06:35
Overcast
Fog And Mist
68°F / 20°C 68°F / 20°C 100% 30.18 in
(1022 mb)
NE 3.5 mph
(NE 6 kph)
- 3SM
06:15
Overcast
Fog And Mist
68°F / 20°C 68°F / 20°C 100% 30.18 in
(1022 mb)
ENE 3.5 mph
(ENE 6 kph)
- 3SM
05:55
Overcast
Fog And Mist
68°F / 20°C 68°F / 20°C 100% 30.18 in
(1022 mb)
Calm - 4SM
04:35
Overcast
Fog And Mist
70°F / 21°C 68°F / 20°C 94% 30.18 in
(1022 mb)
Calm - 3SM
04:15
Overcast
Fog And Mist
70°F / 21°C 68°F / 20°C 94% 30.18 in
(1022 mb)
Calm - 2 1/2SM
03:55
Overcast
Fog And Mist
68°F / 20°C 68°F / 20°C 100% 30.18 in
(1022 mb)
Calm - 2 1/2SM
03:35
Overcast
Fog And Mist
68°F / 20°C 68°F / 20°C 100% 30.18 in
(1022 mb)
Calm - 2 1/2SM
03:15
Mostly Cloudy
Fog And Mist
68°F / 20°C 68°F / 20°C 100% 30.18 in
(1022 mb)
Calm - 3SM
02:55
Mostly Cloudy
Fog And Mist
68°F / 20°C 68°F / 20°C 100% 30.18 in
(1022 mb)
Calm - 3SM
01:35
Overcast
Fog And Mist
68°F / 20°C 68°F / 20°C 100% 30.15 in
(1021 mb)
Calm - 5SM
01:15
Overcast
70°F / 21°C 68°F / 20°C 94% 30.18 in
(1022 mb)
Calm - 7SM
00:55
Overcast
70°F / 21°C 68°F / 20°C 94% 30.18 in
(1022 mb)
Calm - 7SM
00:35
Overcast
Fog And Mist
70°F / 21°C 68°F / 20°C 94% 30.18 in
(1022 mb)
Calm - 5SM
00:15
Mostly Cloudy
Fog And Mist
70°F / 21°C 68°F / 20°C 94% 30.18 in
(1022 mb)
Calm - 3SM
Time Weather Temperature Dewpoint Humidity Pressure Winds Precip Visibility


Weather for websites

WeatherForYou.com, LLC is not responsible for any damages or problems caused by this service. Current weather conditions are obtained from the closest station including government and personal stations which may have varying degrees of accuracy. Weather forecasts are derived from the NOAA NDFD. Like all things, this site belongs to Jesus Christ... He just trusts us to maintain it. If you have any questions or comments email webmaster@weatherforyou.com

Copyright © 2016, WeatherForYou.com LLC. All rights reserved.